#timestamp,LO_Frequency,Hit 
1500447615.3,286046996.9,N
1500447635.1,286046999.6,N
1500447655.9,286046997.8,N
1500447675.7,286046997.3,N
1500447695.5,286046997.4,N
1500447715.4,286046995.8,N
1500447735.2,286046997.7,N
1500447755.0,286046997.8,N
1500447756.0,286046997.8,N
1500447775.8,286046997.9,N
1500447795.6,286046996.8,N
1500447815.5,286046997.8,N
1500447835.3,286046999.1,N
1500447855.1,286046998.9,N
1500447875.9,286046998.4,N
1500447895.7,286046996.6,N
1500447915.6,286046997.1,N
1500447935.4,286046996.8,N
1500447955.2,286046997.3,N
1500447975.1,286046997.3,N
1500447976.0,286046997.3,N
1500447995.8,286046997.4,N
1500448015.7,286046996.7,N
1500448035.5,286046997.7,N
1500448055.3,286046997.4,N
1500448075.2,286046996.7,N
1500448095.0,286046995.0,N
1500448095.9,286046995.0,N
1500448115.7,286046997.9,N
1500448135.6,286046997.4,N
1500448155.4,286046997.2,N
1500448175.3,286046997.9,N
1500448195.1,286046997.9,N
1500448196.0,286046997.9,N
1500448215.8,286046996.7,N
1500448235.7,286046999.1,N
1500448255.5,286046996.6,N
1500448275.4,286046999.5,N
1500448295.2,286046999.1,N
1500448315.0,286046999.2,N
1500448315.9,286046999.2,N
1500448335.8,286046997.3,N
1500448355.6,286046997.2,N
1500448375.5,286046997.4,N
1500448395.3,286046997.3,N
1500448415.1,286046997.3,N
1500448435.9,286046995.7,N
1500448455.7,286046997.9,N
1500448475.5,286046997.8,N
1500448495.4,286046997.5,N
1500448515.2,286046997.2,N
1500448535.1,286046999.6,N
1500448536.0,286046999.6,N
1500448555.8,286046998.7,N
1500448575.6,286046998.3,N
1500448595.5,286046998.1,N
1500448615.3,286047000.4,N
1500448635.2,286046998.2,N
1500448655.9,286047011.9,N
1500448675.7,286047001.0,N
1500448695.6,286047001.1,N
1500448715.4,286046998.4,N
1500448735.2,286046998.8,N
1500448755.1,286046996.6,N
1500448756.0,286046996.6,N
1500448775.8,286046999.2,N
1500448795.7,286046998.1,N
1500448815.5,286046998.4,N
1500448835.3,286047000.7,N
1500448855.2,286047000.0,N
1500448875.0,286047000.0,N
1500448875.9,286047000.0,N
1500448895.8,286047000.6,N
1500448915.6,286047000.8,N
1500448935.4,286046999.4,N
1500448955.3,286046999.6,N
1500448975.1,286046996.5,N
1500448995.8,286046996.5,N
1500449015.7,286046996.5,N
1500449035.5,286046997.8,N
1500449055.4,286046997.4,N
1500449075.2,286046997.7,N
1500449095.0,286046998.0,N
1500449095.9,286046998.0,N
1500449115.8,286046998.0,N
1500449135.6,286046993.3,N
1500449155.5,286046993.8,N
1500449175.3,286046993.4,N
1500449195.1,286046993.5,N
1500449215.9,286046993.7,N
1500449235.7,286046994.0,N
1500449255.6,286046994.6,N
1500449275.4,286046994.7,N
1500449295.2,286046992.0,N
1500449315.1,286046991.9,N
1500449316.0,286046991.9,N
1500449335.8,286046992.9,N
1500449355.6,286046990.2,N
1500449375.5,286046990.5,N
1500449395.3,286046990.8,N
1500449415.2,286046990.8,N
1500449435.9,286046991.5,N
1500449455.7,286046990.7,N
1500449475.6,286046991.3,N
1500449495.4,286046990.5,N
1500449515.3,286046988.5,N
1500449535.1,286046988.9,N
1500449536.0,286046988.9,N
1500449555.8,286046989.2,N
1500449575.7,286046989.0,N
1500449595.5,286046991.4,N
1500449615.3,286046989.4,N
1500449635.2,286046989.4,N
1500449655.0,286046988.7,N
1500449655.9,286046988.7,N
1500449675.8,286046990.0,N
1500449695.6,286046987.1,N
1500449715.4,286046990.0,N
1500449735.3,286046987.1,N
1500449755.1,286046986.9,N
1500449775.9,286046988.2,N
1500449795.7,286046985.7,N
1500449815.5,286046987.9,N
1500449835.4,286046988.2,N
1500449855.2,286046987.5,N
1500449875.0,286046987.1,N
1500449875.9,286046987.1,N
1500449895.8,286046986.9,N
1500449915.6,286046990.0,N
1500449935.5,286046987.1,N
1500449955.3,286046987.7,N
1500449975.1,286046987.9,N
1500449995.9,286046986.5,N
1500450015.7,286046986.2,N
1500450035.5,286046986.5,N
1500450055.4,286046985.7,N
1500450075.2,286046985.3,N
1500450095.1,286046985.4,N
1500450096.0,286046985.4,N
1500450115.8,286046985.3,N
1500450135.6,286046985.4,N
1500450155.5,286046986.2,N
1500450175.3,286046986.1,N
1500450195.1,286046985.9,N
1500450215.9,286046986.1,N
1500450235.7,286046985.6,N
1500450255.6,286046985.3,N
1500450275.4,286046988.4,N
1500450295.2,286046985.4,N
1500450315.1,286046985.4,N
1500450316.0,286046985.4,N
1500450335.8,286046986.5,N
1500450355.7,286046985.6,N
1500450375.5,286046985.4,N
1500450395.3,286046985.5,N
1500450415.2,286046985.9,N
1500450435.0,286046988.4,N
1500450435.9,286046988.4,N
1500450455.7,286046985.3,N
1500450475.6,286046988.2,N
1500450495.4,286046987.2,N
1500450515.3,286046987.1,N
1500450535.1,286046987.3,N
1500450536.0,286046987.3,N
1500450555.8,286046990.0,N
1500450575.7,286046987.2,N
1500450595.5,286046987.1,N
1500450615.4,286046987.1,N
1500450635.2,286046988.4,N
1500450655.0,286046988.3,N
1500450655.9,286046988.3,N
1500450675.8,286046988.0,N
1500450695.6,286046987.4,N
1500450715.4,286046987.4,N
1500450735.3,286046986.9,N
1500450755.1,286046987.3,N
1500450775.9,286046987.4,N
1500450795.7,286046989.6,N
1500450815.5,286046987.5,N
1500450835.4,286046987.1,N
1500450855.2,286046989.2,N
1500450875.1,286046989.6,N
1500450876.0,286046989.6,N
1500450895.8,286046987.6,N
1500450915.6,286046987.2,N
1500450935.5,286046988.1,N
1500450955.3,286046987.5,N
1500450975.1,286046988.2,N
1500450995.9,286046989.8,N
1500451015.7,286046988.8,N
1500451035.6,286046988.7,N
1500451055.4,286046988.6,N
1500451075.2,286046990.4,N
1500451095.1,286046990.9,N
1500451096.0,286046990.9,N
1500451115.8,286046990.2,N
1500451135.6,286046992.7,N
1500451155.5,286046990.9,N
1500451175.3,286046991.0,N
1500451195.2,286046993.1,N
